| time (UTC) | temp C | wind direction | speed KPH | gust KPH | rain 1hr cm | rain 24hr cm | rain mn cm | humidity % | barometer mb |
| 20260504050531 | 3 | 0 | 0.0 | 0.0 | 0.00 | 0.00 | 0.00 | 85 | 1010.2 |
| 20260504045531 | 2 | 0 | 0.0 | 0.0 | 0.00 | 0.00 | 0.00 | 85 | 1010.3 |
| 20260504045030 | 2 | 0 | 0.0 | 0.0 | 0.00 | 0.00 | 0.00 | 85 | 1010.4 |
| 20260504044551 | 2 | 0 | 0.0 | 0.0 | 0.00 | 0.00 | 0.00 | 85 | 1010.3 |
| 20260504044034 | 2 | 0 | 0.0 | 0.0 | 0.00 | 0.00 | 0.00 | 85 | 1010.4 |
| 20260504043531 | 2 | 0 | 0.0 | 0.0 | 0.00 | 0.00 | 0.00 | 85 | 1010.5 |
| 20260504043045 | 2 | 0 | 0.0 | 0.0 | 0.00 | 0.00 | 0.00 | 85 | 1010.5 |
| 20260504042531 | 2 | 0 | 0.0 | 0.0 | 0.00 | 0.00 | 0.00 | 85 | 1010.5 |
| 20260504042031 | 2 | 0 | 0.0 | 0.0 | 0.00 | 0.00 | 0.00 | 85 | 1010.5 |
| 20260504041549 | 2 | 0 | 0.0 | 0.0 | 0.00 | 0.00 | 0.00 | 86 | 1010.6 |
| 20260504041031 | 2 | 0 | 0.0 | 0.0 | 0.00 | 0.00 | 0.00 | 86 | 1010.7 |
| 20260504040531 | 2 | 0 | 0.0 | 0.0 | 0.00 | 0.00 | 0.00 | 86 | 1010.6 |
| 20260504035532 | 2 | 0 | 0.0 | 0.0 | 0.00 | 0.00 | 0.00 | 86 | 1010.6 |
| 20260504035030 | 1 | 0 | 0.0 | 0.0 | 0.00 | 0.00 | 0.00 | 86 | 1010.5 |
| 20260504034557 | 1 | 0 | 0.0 | 0.0 | 0.00 | 0.00 | 0.00 | 85 | 1010.5 |
| 20260504034031 | 1 | 0 | 0.0 | 0.0 | 0.00 | 0.00 | 0.00 | 85 | 1010.6 |
| 20260504033532 | 1 | 0 | 0.0 | 0.0 | 0.00 | 0.00 | 0.00 | 85 | 1010.5 |
| 20260504033124 | 1 | 0 | 0.0 | 0.0 | 0.00 | 0.00 | 0.00 | 85 | 1010.6 |
| 20260504032532 | 1 | 0 | 0.0 | 0.0 | 0.00 | 0.00 | 0.00 | 85 | 1010.7 |
| 20260504032031 | 1 | 0 | 0.0 | 0.0 | 0.00 | 0.00 | 0.00 | 85 | 1010.6 |
| 20260504031545 | 1 | 0 | 0.0 | 0.0 | 0.00 | 0.00 | 0.00 | 85 | 1010.7 |
| 20260504031030 | 1 | 0 | 0.0 | 0.0 | 0.00 | 0.00 | 0.00 | 84 | 1010.7 |
| 20260504030530 | 1 | 0 | 0.0 | 0.0 | 0.00 | 0.00 | 0.00 | 84 | 1010.7 |
| 20260504030048 | 1 | 0 | 0.0 | 0.0 | 0.00 | 0.00 | 0.00 | 84 | 1010.7 |
| 20260504025534 | 1 | 0 | 0.0 | 0.0 | 0.00 | 0.00 | 0.00 | 84 | 1010.7 |
| 20260504025030 | 1 | 0 | 0.0 | 0.0 | 0.00 | 0.00 | 0.00 | 83 | 1010.6 |
| 20260504024545 | 1 | 0 | 0.0 | 0.0 | 0.00 | 0.00 | 0.00 | 82 | 1010.6 |
| 20260504024030 | 1 | 0 | 0.0 | 0.0 | 0.00 | 0.00 | 0.00 | 82 | 1010.6 |
| 20260504023531 | 2 | 0 | 0.0 | 0.0 | 0.00 | 0.00 | 0.00 | 81 | 1010.6 |
| 20260504023059 | 2 | 0 | 0.0 | 0.0 | 0.00 | 0.00 | 0.00 | 81 | 1010.5 |
| 20260504022531 | 2 | 0 | 0.0 | 0.0 | 0.00 | 0.00 | 0.00 | 80 | 1010.5 |
| 20260504022031 | 2 | 0 | 0.0 | 0.0 | 0.00 | 0.00 | 0.00 | 79 | 1010.4 |
| 20260504021546 | 2 | 0 | 0.0 | 0.0 | 0.00 | 0.00 | 0.00 | 78 | 1010.3 |
| 20260504021030 | 2 | 0 | 0.0 | 0.0 | 0.00 | 0.00 | 0.00 | 78 | 1010.4 |
| 20260504020530 | 2 | 0 | 0.0 | 0.0 | 0.00 | 0.00 | 0.00 | 77 | 1010.5 |
| 20260504020049 | 2 | 0 | 0.0 | 0.0 | 0.00 | 0.00 | 0.00 | 77 | 1010.5 |
| 20260504015531 | 3 | 0 | 0.0 | 0.0 | 0.00 | 0.00 | 0.00 | 76 | 1010.5 |
| 20260504015036 | 3 | 0 | 0.0 | 0.0 | 0.00 | 0.00 | 0.00 | 75 | 1010.5 |
| 20260504014549 | 3 | 0 | 0.0 | 0.0 | 0.00 | 0.00 | 0.00 | 75 | 1010.4 |
| 20260504014031 | 3 | 0 | 0.0 | 0.0 | 0.00 | 0.00 | 0.00 | 75 | 1010.5 |
| 20260504013531 | 3 | 0 | 0.0 | 0.0 | 0.00 | 0.00 | 0.00 | 73 | 1010.4 |
| 20260504013046 | 4 | 0 | 0.0 | 0.0 | 0.00 | 0.00 | 0.00 | 72 | 1010.5 |
| 20260504012531 | 4 | 0 | 0.0 | 0.0 | 0.00 | 0.00 | 0.00 | 71 | 1010.3 |
| 20260504012031 | 4 | 0 | 0.0 | 0.0 | 0.00 | 0.00 | 0.00 | 71 | 1010.3 |
| 20260504011546 | 5 | 0 | 0.0 | 0.0 | 0.00 | 0.00 | 0.00 | 70 | 1010.3 |
| 20260504011030 | 5 | 0 | 0.0 | 0.0 | 0.00 | 0.00 | 0.00 | 68 | 1010.3 |
| 20260504010532 | 5 | 0 | 0.0 | 0.0 | 0.00 | 0.00 | 0.00 | 67 | 1010.1 |
| 20260504010053 | 5 | 0 | 0.0 | 0.0 | 0.00 | 0.00 | 0.00 | 67 | 1010.1 |
| 20260504005532 | 5 | 0 | 0.0 | 0.0 | 0.00 | 0.00 | 0.00 | 67 | 1010.0 |
| 20260504005032 | 6 | 0 | 0.0 | 0.0 | 0.00 | 0.00 | 0.00 | 65 | 1010.0 |
| 20260504004600 | 6 | 0 | 0.0 | 0.0 | 0.00 | 0.00 | 0.00 | 63 | 1009.9 |
| 20260504004033 | 6 | 0 | 0.0 | 0.0 | 0.00 | 0.00 | 0.00 | 63 | 1009.9 |
| 20260504003532 | 6 | 0 | 0.0 | 3.2 | 0.00 | 0.00 | 0.00 | 62 | 1009.8 |
| 20260504003042 | 6 | 0 | 0.0 | 3.2 | 0.00 | 0.00 | 0.00 | 61 | 1009.9 |
| 20260504002532 | 6 | 0 | 1.6 | 3.2 | 0.00 | 0.00 | 0.00 | 61 | 1009.9 |
| 20260504002032 | 7 | 242 | 0.0 | 4.8 | 0.00 | 0.00 | 0.00 | 59 | 1009.7 |
| 20260504001546 | 7 | 242 | 1.6 | 4.8 | 0.00 | 0.00 | 0.00 | 58 | 1009.7 |
| 20260504001032 | 7 | 242 | 1.6 | 8.0 | 0.00 | 0.00 | 0.00 | 57 | 1009.7 |
| 20260504000533 | 7 | 242 | 3.2 | 8.0 | 0.00 | 0.00 | 0.00 | 56 | 1009.7 |
| 20260504000049 | 8 | 218 | 0.0 | 8.0 | 0.00 | 0.00 | 0.00 | 55 | 1009.6 |
| 20260503235532 | 8 | 218 | 1.6 | 8.0 | 0.00 | 0.00 | 0.00 | 54 | 1009.6 |
| 20260503235032 | 8 | 13 | 1.6 | 6.4 | 0.00 | 0.00 | 0.00 | 53 | 1009.6 |
| 20260503234548 | 8 | 324 | 0.0 | 6.4 | 0.00 | 0.00 | 0.00 | 53 | 1009.6 |
| 20260503234032 | 8 | 323 | 3.2 | 6.4 | 0.00 | 0.00 | 0.00 | 53 | 1009.5 |
| 20260503233531 | 8 | 231 | 0.0 | 14.5 | 0.00 | 0.00 | 0.00 | 53 | 1009.6 |
| 20260503233042 | 8 | 223 | 1.6 | 14.5 | 0.00 | 0.00 | 0.00 | 52 | 1009.5 |
| 20260503232533 | 8 | 0 | 1.6 | 12.9 | 0.00 | 0.00 | 0.00 | 52 | 1009.5 |
| 20260503232032 | 8 | 255 | 4.8 | 20.9 | 0.00 | 0.00 | 0.00 | 51 | 1009.5 |
| 20260503231550 | 8 | 161 | 8.0 | 20.9 | 0.00 | 0.00 | 0.00 | 50 | 1009.6 |
| 20260503231033 | 9 | 301 | 4.8 | 17.7 | 0.00 | 0.00 | 0.00 | 49 | 1009.6 |
| 20260503230534 | 9 | 352 | 6.4 | 17.7 | 0.00 | 0.00 | 0.00 | 48 | 1009.4 |
| 20260503230044 | 9 | 43 | 0.0 | 11.3 | 0.00 | 0.00 | 0.00 | 48 | 1009.4 |
| 20260503225532 | 9 | 205 | 4.8 | 16.1 | 0.00 | 0.00 | 0.00 | 47 | 1009.3 |
| 20260503225034 | 9 | 243 | 6.4 | 16.1 | 0.00 | 0.00 | 0.00 | 46 | 1009.4 |
| 20260503224547 | 9 | 268 | 1.6 | 20.9 | 0.00 | 0.00 | 0.00 | 46 | 1009.2 |
| 20260503224032 | 9 | 298 | 4.8 | 20.9 | 0.00 | 0.00 | 0.00 | 46 | 1009.1 |
| 20260503223531 | 9 | 275 | 3.2 | 17.7 | 0.00 | 0.00 | 0.00 | 45 | 1009.2 |
| 20260503223051 | 9 | 211 | 6.4 | 17.7 | 0.00 | 0.00 | 0.00 | 44 | 1009.2 |
| 20260503222532 | 10 | 333 | 6.4 | 17.7 | 0.00 | 0.00 | 0.00 | 44 | 1009.1 |
| 20260503222031 | 10 | 201 | 1.6 | 12.9 | 0.00 | 0.00 | 0.00 | 44 | 1009.1 |
| 20260503221545 | 10 | 232 | 3.2 | 16.1 | 0.00 | 0.00 | 0.00 | 43 | 1009.1 |
| 20260503221032 | 10 | 217 | 3.2 | 16.1 | 0.00 | 0.00 | 0.00 | 41 | 1009.1 |
| 20260503220533 | 10 | 337 | 4.8 | 16.1 | 0.00 | 0.00 | 0.00 | 40 | 1009.0 |
| 20260503220046 | 10 | 11 | 3.2 | 19.3 | 0.00 | 0.00 | 0.00 | 40 | 1008.9 |
| 20260503215532 | 10 | 348 | 6.4 | 19.3 | 0.00 | 0.00 | 0.00 | 39 | 1008.9 |
| 20260503215031 | 10 | 159 | 4.8 | 20.9 | 0.00 | 0.00 | 0.00 | 39 | 1009.0 |
| 20260503214543 | 10 | 316 | 3.2 | 20.9 | 0.00 | 0.00 | 0.00 | 40 | 1008.9 |
| 20260503214033 | 10 | 69 | 3.2 | 17.7 | 0.00 | 0.00 | 0.00 | 39 | 1008.9 |
| 20260503213531 | 10 | 348 | 3.2 | 19.3 | 0.00 | 0.00 | 0.00 | 37 | 1008.8 |
| 20260503213100 | 10 | 325 | 3.2 | 20.9 | 0.00 | 0.00 | 0.00 | 38 | 1008.7 |
| 20260503212530 | 10 | 249 | 8.0 | 20.9 | 0.00 | 0.00 | 0.00 | 37 | 1008.7 |
| 20260503212032 | 10 | 250 | 8.0 | 19.3 | 0.00 | 0.00 | 0.00 | 37 | 1008.6 |
| 20260503211547 | 10 | 265 | 3.2 | 19.3 | 0.00 | 0.00 | 0.00 | 35 | 1008.7 |
| 20260503211032 | 10 | 304 | 11.3 | 19.3 | 0.00 | 0.00 | 0.00 | 35 | 1008.8 |
| 20260503210536 | 10 | 333 | 4.8 | 19.3 | 0.00 | 0.00 | 0.00 | 34 | 1008.7 |
| 20260503210054 | 10 | 19 | 8.0 | 25.7 | 0.00 | 0.00 | 0.00 | 34 | 1008.7 |
| 20260503205532 | 10 | 330 | 4.8 | 25.7 | 0.00 | 0.00 | 0.00 | 35 | 1008.7 |
| 20260503205032 | 10 | 71 | 8.0 | 22.5 | 0.00 | 0.00 | 0.00 | 32 | 1008.5 |
| 20260503204551 | 10 | 219 | 4.8 | 19.3 | 0.00 | 0.00 | 0.00 | 35 | 1008.5 |
| 20260503204031 | 10 | 219 | 4.8 | 22.5 | 0.00 | 0.00 | 0.00 | 35 | 1008.5 |
| 20260503203531 | 10 | 25 | 8.0 | 22.5 | 0.00 | 0.00 | 0.00 | 32 | 1008.6 |
| 20260503203047 | 10 | 281 | 11.3 | 22.5 | 0.00 | 0.00 | 0.00 | 33 | 1008.5 |
| 20260503202532 | 10 | 170 | 3.2 | 16.1 | 0.00 | 0.00 | 0.00 | 35 | 1008.7 |
| 20260503202031 | 10 | 5 | 4.8 | 22.5 | 0.00 | 0.00 | 0.00 | 35 | 1008.6 |
| 20260503201606 | 10 | 302 | 8.0 | 24.1 | 0.00 | 0.00 | 0.00 | 35 | 1008.6 |
| 20260503201031 | 10 | 237 | 9.7 | 24.1 | 0.00 | 0.00 | 0.00 | 33 | 1008.9 |
| 20260503200533 | 10 | 360 | 4.8 | 25.7 | 0.00 | 0.00 | 0.00 | 35 | 1008.8 |
| 20260503200054 | 10 | 178 | 3.2 | 25.7 | 0.00 | 0.00 | 0.00 | 35 | 1008.7 |
| 20260503195530 | 10 | 338 | 11.3 | 22.5 | 0.00 | 0.00 | 0.00 | 34 | 1008.9 |
| 20260503195032 | 10 | 355 | 9.7 | 19.3 | 0.00 | 0.00 | 0.00 | 37 | 1009.1 |
| 20260503194546 | 10 | 360 | 6.4 | 19.3 | 0.00 | 0.00 | 0.00 | 37 | 1009.0 |
| 20260503194031 | 10 | 304 | 6.4 | 17.7 | 0.00 | 0.00 | 0.00 | 38 | 1008.9 |
| 20260503193532 | 9 | 82 | 3.2 | 12.9 | 0.00 | 0.00 | 0.00 | 38 | 1009.1 |
| 20260503193051 | 8 | 92 | 3.2 | 17.7 | 0.00 | 0.00 | 0.00 | 38 | 1009.3 |
| 20260503192531 | 8 | 53 | 4.8 | 17.7 | 0.00 | 0.00 | 0.00 | 39 | 1009.4 |
| 20260503192031 | 8 | 5 | 4.8 | 17.7 | 0.00 | 0.00 | 0.00 | 39 | 1009.3 |
| 20260503191544 | 8 | 360 | 6.4 | 17.7 | 0.00 | 0.00 | 0.00 | 38 | 1009.4 |
| 20260503191032 | 9 | 238 | 4.8 | 14.5 | 0.00 | 0.00 | 0.00 | 38 | 1009.5 |
| 20260503190532 | 8 | 44 | 4.8 | 20.9 | 0.00 | 0.00 | 0.00 | 42 | 1009.5 |
| 20260503190044 | 8 | 63 | 6.4 | 20.9 | 0.00 | 0.00 | 0.00 | 40 | 1009.6 |
| 20260503185531 | 8 | 352 | 8.0 | 25.7 | 0.00 | 0.00 | 0.00 | 41 | 1009.5 |
| 20260503185033 | 8 | 325 | 6.4 | 25.7 | 0.00 | 0.00 | 0.00 | 42 | 1009.7 |
| 20260503184556 | 8 | 35 | 9.7 | 25.7 | 0.00 | 0.00 | 0.00 | 42 | 1009.6 |
| 20260503184032 | 8 | 65 | 8.0 | 25.7 | 0.00 | 0.00 | 0.00 | 42 | 1009.7 |
| 20260503183532 | 8 | 87 | 11.3 | 27.4 | 0.00 | 0.00 | 0.00 | 42 | 1009.9 |
| 20260503183101 | 8 | 81 | 9.7 | 27.4 | 0.00 | 0.00 | 0.00 | 41 | 1009.8 |
| 20260503182531 | 8 | 78 | 8.0 | 24.1 | 0.00 | 0.00 | 0.00 | 43 | 1009.8 |
| 20260503182032 | 7 | 51 | 9.7 | 24.1 | 0.00 | 0.00 | 0.00 | 45 | 1010.0 |
| 20260503181547 | 7 | 78 | 9.7 | 35.4 | 0.00 | 0.00 | 0.00 | 43 | 1009.8 |
| 20260503181031 | 7 | 107 | 6.4 | 35.4 | 0.00 | 0.00 | 0.00 | 43 | 1010.0 |
| 20260503180533 | 7 | 11 | 12.9 | 35.4 | 0.00 | 0.00 | 0.00 | 43 | 1010.0 |
| 20260503180045 | 7 | 58 | 4.8 | 14.5 | 0.00 | 0.00 | 0.00 | 43 | 1010.1 |
| 20260503175532 | 7 | 120 | 3.2 | 22.5 | 0.00 | 0.00 | 0.00 | 44 | 1010.1 |
| 20260503175030 | 7 | 257 | 3.2 | 22.5 | 0.00 | 0.00 | 0.00 | 43 | 1010.1 |
| 20260503174548 | 7 | 330 | 4.8 | 30.6 | 0.00 | 0.00 | 0.00 | 44 | 1010.2 |
| 20260503174032 | 6 | 76 | 8.0 | 30.6 | 0.00 | 0.00 | 0.00 | 48 | 1010.2 |
| 20260503173532 | 6 | 80 | 9.7 | 30.6 | 0.00 | 0.00 | 0.00 | 45 | 1010.3 |
| 20260503173110 | 6 | 57 | 9.7 | 20.9 | 0.00 | 0.00 | 0.00 | 47 | 1010.3 |
| 20260503172535 | 6 | 352 | 9.7 | 20.9 | 0.00 | 0.00 | 0.00 | 48 | 1010.2 |
| 20260503172031 | 6 | 105 | 6.4 | 19.3 | 0.00 | 0.00 | 0.00 | 48 | 1010.4 |
| 20260503171548 | 6 | 77 | 4.8 | 14.5 | 0.00 | 0.00 | 0.00 | 50 | 1010.4 |
| 20260503171033 | 6 | 37 | 6.4 | 25.7 | 0.00 | 0.00 | 0.00 | 50 | 1010.5 |
| 20260503170532 | 6 | 93 | 8.0 | 25.7 | 0.00 | 0.00 | 0.00 | 51 | 1010.6 |
| 20260503150531 | 4 | 260 | 9.7 | 22.5 | 0.00 | 0.00 | 0.00 | 52 | 1010.8 |
| 20260503131031 | 3 | 324 | 3.2 | 19.3 | 0.00 | 0.00 | 0.00 | 67 | 1011.5 |
| 20260503130531 | 3 | 23 | 9.7 | 27.4 | 0.00 | 0.00 | 0.00 | 66 | 1011.3 |
| 20260503110532 | 1 | 90 | 3.2 | 12.9 | 0.00 | 0.00 | 0.00 | 80 | 1010.7 |
| 20260503081546 | 0 | 0 | 0.0 | 4.8 | 0.00 | 0.03 | 0.00 | 84 | 1010.3 |
| 20260503081031 | 0 | 0 | 0.0 | 6.4 | 0.00 | 0.03 | 0.00 | 85 | 1010.4 |
| 20260503080533 | 0 | 0 | 1.6 | 6.4 | 0.00 | 0.03 | 0.00 | 84 | 1010.4 |
| 20260503072533 | 0 | 0 | 0.0 | 3.2 | 0.00 | 0.03 | 0.00 | 85 | 1010.3 |
| 20260503072032 | 0 | 304 | 0.0 | 3.2 | 0.00 | 0.03 | 0.00 | 85 | 1010.4 |
| 20260503071549 | 0 | 304 | 0.0 | 4.8 | 0.00 | 0.03 | 0.00 | 85 | 1010.4 |